Time,TemperatureF,DewpointF,PressureIn,WindDirection,WindDirectionDegrees,WindSpeedMPH,WindSpeedGustMPH,Humidity,HourlyPrecipIn,Conditions,Clouds,dailyrainin,SolarRadiationWatts/m^2,SoftwareType,DateUTC
2013-03-07 00:00:00,40.7,36.5,29.80,NNW,337,3.6,6.9,85,0.00,,BKN,0.00,0.0,WeatherDisplay:10.37,2013-03-07 05:00:00,
2013-03-07 00:01:00,40.7,36.5,29.80,NNW,337,3.6,6.9,85,0.00,,BKN,0.00,0.0,WeatherDisplay:10.37,2013-03-07 05:01:00,
2013-03-07 00:02:00,40.7,36.5,29.80,NNW,337,3.6,6.9,85,0.00,,BKN,0.00,0.0,WeatherDisplay:10.37,2013-03-07 05:02:00,
2013-03-07 00:07:00,40.7,36.5,29.80,NNW,337,3.6,6.9,85,0.00,,BKN,0.00,0.0,WeatherDisplay:10.37,2013-03-07 05:07:00,
2013-03-07 00:12:00,40.7,36.5,29.80,NNW,337,3.6,6.9,85,0.00,,BKN,0.00,0.0,WeatherDisplay:10.37,2013-03-07 05:12:00,
2013-03-07 00:17:00,40.7,36.5,29.80,NNW,337,3.6,6.9,85,0.00,,BKN,0.00,0.0,WeatherDisplay:10.37,2013-03-07 05:17:00,
2013-03-07 00:22:00,40.7,35.6,29.82,NW,313,7.0,15.0,82,0.00,,BKN,0.00,0.0,WeatherDisplay:10.37,2013-03-07 05:22:00,
2013-03-07 00:27:00,40.7,35.6,29.82,NNE,17,9.1,15.0,82,0.00,,BKN,0.00,0.0,WeatherDisplay:10.37,2013-03-07 05:27:00,
2013-03-07 00:32:00,40.7,35.6,29.82,NNW,340,9.4,9.4,82,0.00,,BKN,0.00,0.0,WeatherDisplay:10.37,2013-03-07 05:32:00,
2013-03-07 00:37:00,40.7,35.6,29.82,NNW,340,9.4,9.4,82,0.00,,BKN,0.00,0.0,WeatherDisplay:10.37,2013-03-07 05:37:00,
2013-03-07 00:42:00,40.7,35.3,29.83,NW,308,5.6,12.7,81,0.00,,BKN,0.00,0.0,WeatherDisplay:10.37,2013-03-07 05:42:00,
2013-03-07 00:48:00,40.7,35.3,29.83,NNW,331,3.0,11.5,81,0.00,,BKN,0.00,0.0,WeatherDisplay:10.37,2013-03-07 05:48:00,
2013-03-07 00:53:00,40.7,35.3,29.83,WNW,296,5.7,0.0,81,0.00,,BKN,0.00,0.0,WeatherDisplay:10.37,2013-03-07 05:53:00,
2013-03-07 00:58:00,40.7,35.3,29.83,WNW,296,5.7,0.0,81,0.00,,BKN,0.00,0.0,WeatherDisplay:10.37,2013-03-07 05:58:00,
2013-03-07 01:03:00,40.8,35.1,29.84,West,265,10.1,12.7,80,0.00,,BKN,0.00,0.0,WeatherDisplay:10.37,2013-03-07 06:03:00,
2013-03-07 01:08:00,40.8,35.1,29.84,North,358,9.3,19.6,80,0.00,,BKN,0.00,0.0,WeatherDisplay:10.37,2013-03-07 06:08:00,
2013-03-07 01:13:00,40.8,35.1,29.84,West,267,6.2,6.2,80,0.00,,BKN,0.00,0.0,WeatherDisplay:10.37,2013-03-07 06:13:00,
2013-03-07 01:18:00,40.8,35.1,29.84,West,267,6.2,6.2,80,0.00,,BKN,0.00,0.0,WeatherDisplay:10.37,2013-03-07 06:18:00,
2013-03-07 01:23:00,40.7,35.0,29.84,WNW,283,6.0,13.8,80,0.00,,BKN,0.00,0.0,WeatherDisplay:10.37,2013-03-07 06:23:00,
2013-03-07 01:28:00,40.7,35.0,29.84,WNW,294,14.0,14.0,80,0.00,,BKN,0.00,0.0,WeatherDisplay:10.37,2013-03-07 06:28:00,
2013-03-07 01:33:00,40.7,35.0,29.84,NW,309,8.5,9.2,80,0.00,,BKN,0.00,0.0,WeatherDisplay:10.37,2013-03-07 06:33:00,
2013-03-07 01:38:00,40.7,35.0,29.84,NW,309,8.5,9.2,80,0.00,,BKN,0.00,0.0,WeatherDisplay:10.37,2013-03-07 06:38:00,
2013-03-07 01:43:00,40.7,35.0,29.84,NW,312,10.8,16.1,80,0.00,,BKN,0.00,0.0,WeatherDisplay:10.37,2013-03-07 06:43:00,
2013-03-07 01:48:00,40.8,35.1,29.84,NNW,330,7.8,13.8,80,0.00,,BKN,0.00,0.0,WeatherDisplay:10.37,2013-03-07 06:48:00,
2013-03-07 01:53:00,40.8,34.8,29.84,WNW,294,3.9,0.0,79,0.00,,BKN,0.00,0.0,WeatherDisplay:10.37,2013-03-07 06:53:00,
2013-03-07 01:58:00,40.8,34.8,29.84,WNW,294,3.9,0.0,79,0.00,,BKN,0.00,0.0,WeatherDisplay:10.37,2013-03-07 06:58:00,
2013-03-07 02:03:00,40.7,34.7,29.85,North,350,8.3,12.7,79,0.00,,BKN,0.00,0.0,WeatherDisplay:10.37,2013-03-07 07:03:00,
2013-03-07 02:08:00,40.7,35.0,29.85,NW,323,6.8,11.5,80,0.00,,BKN,0.00,0.0,WeatherDisplay:10.37,2013-03-07 07:08:00,
2013-03-07 02:13:00,40.7,34.7,29.86,NNW,328,5.3,5.3,79,0.00,,BKN,0.00,0.0,WeatherDisplay:10.37,2013-03-07 07:13:00,
2013-03-07 02:18:00,40.7,34.7,29.86,NNW,328,5.3,5.3,79,0.00,,BKN,0.00,0.0,WeatherDisplay:10.37,2013-03-07 07:18:00,
2013-03-07 02:23:00,40.7,34.7,29.86,NNW,328,5.3,5.3,79,0.00,,BKN,0.00,0.0,WeatherDisplay:10.37,2013-03-07 07:23:00,
2013-03-07 02:28:00,40.7,34.7,29.86,NNW,328,5.3,5.3,79,0.00,,BKN,0.00,0.0,WeatherDisplay:10.37,2013-03-07 07:28:00,
2013-03-07 02:33:00,40.8,34.8,29.85,West,273,1.8,6.9,79,0.00,,BKN,0.00,0.0,WeatherDisplay:10.37,2013-03-07 07:33:00,
2013-03-07 02:38:00,40.7,34.7,29.85,NW,316,4.8,8.1,79,0.00,,BKN,0.00,0.0,WeatherDisplay:10.37,2013-03-07 07:38:00,
2013-03-07 02:43:00,40.7,34.4,29.85,North,350,3.4,9.2,78,0.00,,BKN,0.00,0.0,WeatherDisplay:10.37,2013-03-07 07:43:00,
2013-03-07 02:48:00,40.7,34.4,29.85,North,360,5.7,9.2,78,0.00,,BKN,0.00,0.0,WeatherDisplay:10.37,2013-03-07 07:48:00,
2013-03-07 02:53:00,40.8,34.5,29.85,WNW,302,7.7,10.4,78,0.00,,BKN,0.00,0.0,WeatherDisplay:10.37,2013-03-07 07:53:00,
2013-03-07 02:58:00,40.8,34.5,29.85,WNW,302,7.7,10.4,78,0.00,,BKN,0.00,0.0,WeatherDisplay:10.37,2013-03-07 07:58:00,
2013-03-07 03:03:00,40.8,34.5,29.85,WNW,302,7.7,10.4,78,0.00,,BKN,0.00,0.0,WeatherDisplay:10.37,2013-03-07 08:03:00,
2013-03-07 03:08:00,40.8,34.5,29.85,WNW,302,7.7,10.4,78,0.00,,BKN,0.00,0.0,WeatherDisplay:10.37,2013-03-07 08:08:00,
2013-03-07 03:13:00,40.9,34.2,29.87,NNW,333,4.2,8.1,77,0.00,,BKN,0.00,0.0,WeatherDisplay:10.37,2013-03-07 08:13:00,
2013-03-07 03:18:00,40.9,34.2,29.87,West,275,2.8,8.1,77,0.00,,BKN,0.00,0.0,WeatherDisplay:10.37,2013-03-07 08:18:00,
2013-03-07 03:23:00,40.9,34.2,29.88,WNW,286,7.5,7.5,77,0.00,,BKN,0.00,0.0,WeatherDisplay:10.37,2013-03-07 08:23:00,
2013-03-07 03:28:00,40.9,34.2,29.88,WNW,286,7.5,7.5,77,0.00,,BKN,0.00,0.0,WeatherDisplay:10.37,2013-03-07 08:28:00,
2013-03-07 03:33:00,41.0,34.0,29.88,NNW,341,3.0,11.5,76,0.00,,BKN,0.00,0.0,WeatherDisplay:10.37,2013-03-07 08:33:00,
2013-03-07 03:38:00,41.0,34.0,29.88,North,357,8.4,12.7,76,0.00,,BKN,0.00,0.0,WeatherDisplay:10.37,2013-03-07 08:38:00,
2013-03-07 03:43:00,41.0,34.0,29.89,North,352,5.4,5.4,76,0.00,,BKN,0.00,0.0,WeatherDisplay:10.37,2013-03-07 08:43:00,
2013-03-07 03:48:00,41.0,34.0,29.89,North,352,5.4,5.4,76,0.00,,BKN,0.00,0.0,WeatherDisplay:10.37,2013-03-07 08:48:00,
2013-03-07 03:53:00,41.1,34.1,29.89,WNW,296,2.5,10.4,76,0.00,,BKN,0.00,0.0,WeatherDisplay:10.37,2013-03-07 08:53:00,
2013-03-07 03:58:00,41.1,34.1,29.90,NNW,336,5.6,11.5,76,0.00,,BKN,0.00,0.0,WeatherDisplay:10.37,2013-03-07 08:58:00,
2013-03-07 04:03:00,41.1,34.1,29.90,WSW,246,4.1,6.9,76,0.00,,BKN,0.00,0.0,WeatherDisplay:10.37,2013-03-07 09:03:00,
2013-03-07 04:08:00,41.1,34.1,29.90,WSW,246,4.1,6.9,76,0.00,,BKN,0.00,0.0,WeatherDisplay:10.37,2013-03-07 09:08:00,
2013-03-07 04:13:00,41.1,33.4,29.91,NW,314,2.3,8.1,74,0.00,,BKN,0.00,0.0,WeatherDisplay:10.37,2013-03-07 09:13:00,
2013-03-07 04:18:00,41.1,33.4,29.91,NNW,346,4.8,15.0,74,0.00,,BKN,0.00,0.0,WeatherDisplay:10.37,2013-03-07 09:18:00,
2013-03-07 04:23:00,41.1,33.4,29.91,NNW,334,5.4,5.4,74,0.00,,BKN,0.00,0.0,WeatherDisplay:10.37,2013-03-07 09:23:00,
2013-03-07 04:28:00,41.1,33.4,29.91,NNW,334,5.4,5.4,74,0.00,,BKN,0.00,0.0,WeatherDisplay:10.37,2013-03-07 09:28:00,
2013-03-07 04:33:00,41.0,33.3,29.91,North,3,1.7,17.3,74,0.00,,BKN,0.00,0.0,WeatherDisplay:10.37,2013-03-07 09:33:00,
2013-03-07 04:38:00,40.9,33.2,29.92,NNW,346,2.3,6.9,74,0.00,,BKN,0.00,0.0,WeatherDisplay:10.37,2013-03-07 09:38:00,
2013-03-07 04:43:00,40.9,33.2,29.92,NW,308,5.6,10.4,74,0.00,,BKN,0.00,0.0,WeatherDisplay:10.37,2013-03-07 09:43:00,
2013-03-07 04:48:00,40.9,33.2,29.92,NW,308,5.6,10.4,74,0.00,,BKN,0.00,0.0,WeatherDisplay:10.37,2013-03-07 09:48:00,
2013-03-07 04:53:00,40.9,33.2,29.92,North,8,5.0,15.0,74,0.00,,BKN,0.00,0.0,WeatherDisplay:10.37,2013-03-07 09:53:00,
2013-03-07 04:58:00,40.9,33.2,29.93,NW,313,5.0,10.4,74,0.00,,BKN,0.00,0.0,WeatherDisplay:10.37,2013-03-07 09:58:00,
2013-03-07 05:03:00,40.9,33.2,29.93,West,266,1.5,6.0,74,0.00,,BKN,0.00,0.0,WeatherDisplay:10.37,2013-03-07 10:03:00,
2013-03-07 05:08:00,40.9,33.2,29.92,NNW,329,1.5,4.6,74,0.00,,BKN,0.00,0.0,WeatherDisplay:10.37,2013-03-07 10:08:00,
2013-03-07 05:13:00,40.9,33.2,29.93,WNW,302,7.2,15.0,74,0.00,,BKN,0.00,0.0,WeatherDisplay:10.37,2013-03-07 10:13:00,
2013-03-07 05:18:00,41.0,33.3,29.93,WSW,258,6.1,11.5,74,0.00,,BKN,0.00,0.0,WeatherDisplay:10.37,2013-03-07 10:18:00,
2013-03-07 05:23:00,41.1,33.4,29.93,North,353,4.8,4.8,74,0.00,,BKN,0.00,0.0,WeatherDisplay:10.37,2013-03-07 10:23:00,
2013-03-07 05:28:00,41.2,33.2,29.93,West,274,4.3,11.5,73,0.00,,BKN,0.00,0.0,WeatherDisplay:10.37,2013-03-07 10:28:00,
2013-03-07 05:33:00,41.3,33.3,29.93,WNW,285,2.1,6.9,73,0.00,,BKN,0.00,0.0,WeatherDisplay:10.37,2013-03-07 10:33:00,
2013-03-07 05:38:00,41.3,33.0,29.94,WNW,290,3.6,9.2,72,0.00,,BKN,0.00,0.0,WeatherDisplay:10.37,2013-03-07 10:38:00,
2013-03-07 05:43:00,41.4,33.0,29.94,West,277,6.0,6.0,72,0.00,,BKN,0.00,0.0,WeatherDisplay:10.37,2013-03-07 10:43:00,
2013-03-07 05:48:00,41.4,33.0,29.94,West,277,6.0,6.0,72,0.00,,BKN,0.00,0.0,WeatherDisplay:10.37,2013-03-07 10:48:00,
2013-03-07 05:53:00,41.4,33.0,29.94,West,277,6.0,6.0,72,0.00,,BKN,0.00,0.0,WeatherDisplay:10.37,2013-03-07 10:53:00,
2013-03-07 05:58:00,41.4,33.0,29.94,West,277,6.0,6.0,72,0.00,,BKN,0.00,0.0,WeatherDisplay:10.37,2013-03-07 10:58:00,
2013-03-07 06:03:00,41.5,32.8,29.95,NW,321,5.8,9.2,71,0.00,,BKN,0.00,0.0,WeatherDisplay:10.37,2013-03-07 11:03:00,
2013-03-07 06:08:00,41.5,32.8,29.95,NW,310,3.4,7.0,71,0.00,,BKN,0.00,0.0,WeatherDisplay:10.37,2013-03-07 11:08:00,
2013-03-07 06:13:00,41.5,32.8,29.95,WNW,300,6.3,6.3,71,0.00,,BKN,0.00,0.0,WeatherDisplay:10.37,2013-03-07 11:13:00,
2013-03-07 06:19:00,41.5,32.8,29.95,WNW,300,6.3,6.3,71,0.00,,BKN,0.00,0.0,WeatherDisplay:10.37,2013-03-07 11:19:00,
2013-03-07 06:24:00,41.4,32.7,29.96,NNE,25,4.5,9.2,71,0.00,,BKN,0.00,0.0,WeatherDisplay:10.37,2013-03-07 11:24:00,
2013-03-07 06:29:00,41.3,32.6,29.96,WNW,299,2.0,11.5,71,0.00,,BKN,0.00,5.0,WeatherDisplay:10.37,2013-03-07 11:29:00,
2013-03-07 06:34:00,41.3,33.0,29.96,NW,322,1.9,1.9,72,0.00,,BKN,0.00,5.0,WeatherDisplay:10.37,2013-03-07 11:34:00,
2013-03-07 06:39:00,41.3,33.0,29.96,NW,322,1.9,1.9,72,0.00,BKN,,0.00,5.0,WeatherDisplay:10.37,2013-03-07 11:39:00,
2013-03-07 06:44:00,41.1,32.8,29.96,WNW,291,4.3,10.4,72,0.00,SCT,BKN,0.00,12.0,WeatherDisplay:10.37,2013-03-07 11:44:00,
2013-03-07 06:49:00,41.1,32.8,29.97,NNW,348,4.2,10.4,72,0.00,SCT,BKN,0.00,19.0,WeatherDisplay:10.37,2013-03-07 11:49:00,
2013-03-07 06:54:00,41.1,33.1,29.97,NNW,329,2.3,6.9,73,0.00,SCT,BKN,0.00,28.0,WeatherDisplay:10.37,2013-03-07 11:54:00,
2013-03-07 06:59:00,41.1,32.8,29.97,NE,37,1.6,4.6,72,0.00,SCT,BKN,0.00,35.0,WeatherDisplay:10.37,2013-03-07 11:59:00,
2013-03-07 07:04:00,41.2,32.9,29.97,West,270,4.1,8.1,72,0.00,SCT,BKN,0.00,37.0,WeatherDisplay:10.37,2013-03-07 12:04:00,
2013-03-07 07:09:00,41.3,33.3,29.98,WNW,282,2.3,12.7,73,0.00,SCT,BKN,0.00,46.0,WeatherDisplay:10.37,2013-03-07 12:09:00,
2013-03-07 07:14:00,41.3,33.3,29.98,WSW,239,3.5,0.0,73,0.00,SCT,BKN,0.00,49.0,WeatherDisplay:10.37,2013-03-07 12:14:00,
2013-03-07 07:19:00,41.3,33.3,29.98,WSW,239,3.5,0.0,73,0.00,BKN,,0.00,49.0,WeatherDisplay:10.37,2013-03-07 12:19:00,
2013-03-07 07:24:00,41.4,33.4,29.98,West,281,5.5,9.2,73,0.00,SCT,BKN,0.00,76.0,WeatherDisplay:10.37,2013-03-07 12:24:00,
2013-03-07 07:29:00,41.5,33.1,29.98,WSW,252,2.3,5.0,72,0.00,SCT,BKN,0.00,95.0,WeatherDisplay:10.37,2013-03-07 12:29:00,
2013-03-07 07:34:00,41.5,33.1,29.99,NW,309,6.8,6.9,72,0.00,SCT,BKN,0.00,98.0,WeatherDisplay:10.37,2013-03-07 12:34:00,
2013-03-07 07:39:00,41.5,33.1,29.99,NW,309,6.8,6.9,72,0.00,SCT,BKN,0.00,98.0,WeatherDisplay:10.37,2013-03-07 12:39:00,
2013-03-07 07:44:00,41.7,33.0,29.99,NW,321,2.8,11.0,71,0.00,BKN,,0.00,39.0,WeatherDisplay:10.37,2013-03-07 12:44:00,
2013-03-07 07:49:00,41.6,32.9,29.99,NW,323,4.7,11.5,71,0.00,SCT,BKN,0.00,181.0,WeatherDisplay:10.37,2013-03-07 12:49:00,
2013-03-07 07:54:00,41.7,33.0,29.99,WSW,243,4.6,4.6,71,0.00,CLR,BKN,0.00,244.0,WeatherDisplay:10.37,2013-03-07 12:54:00,
2013-03-07 07:59:00,41.7,33.0,29.99,WSW,243,4.6,4.6,71,0.00,CLR,BKN,0.00,244.0,WeatherDisplay:10.37,2013-03-07 12:59:00,
2013-03-07 08:04:00,42.2,32.8,29.99,North,6,8.5,18.4,69,0.00,CLR,BKN,0.00,288.0,WeatherDisplay:10.37,2013-03-07 13:04:00,
2013-03-07 08:09:00,42.5,32.7,29.99,WNW,292,6.3,11.0,68,0.00,CLR,BKN,0.00,306.0,WeatherDisplay:10.37,2013-03-07 13:09:00,
2013-03-07 08:14:00,42.7,32.5,30.00,NW,311,10.6,10.6,67,0.00,CLR,BKN,0.00,323.0,WeatherDisplay:10.37,2013-03-07 13:14:00,
2013-03-07 08:19:00,42.9,32.3,30.00,West,275,5.7,19.6,66,0.00,CLR,BKN,0.00,341.0,WeatherDisplay:10.37,2013-03-07 13:19:00,
2013-03-07 08:24:00,43.2,32.6,30.00,NNW,336,7.0,12.7,66,0.00,CLR,BKN,0.00,359.0,WeatherDisplay:10.37,2013-03-07 13:24:00,
2013-03-07 08:29:00,43.3,31.9,30.00,NW,322,6.7,13.0,64,0.00,CLR,BKN,0.00,374.0,WeatherDisplay:10.37,2013-03-07 13:29:00,
2013-03-07 08:34:00,43.3,31.9,30.00,NNW,344,10.7,10.7,64,0.00,CLR,BKN,0.00,383.0,WeatherDisplay:10.37,2013-03-07 13:34:00,
2013-03-07 08:40:00,43.3,31.9,30.00,NNW,344,10.7,10.7,64,0.00,CLR,BKN,0.00,383.0,WeatherDisplay:10.37,2013-03-07 13:40:00,
2013-03-07 08:45:00,43.3,31.9,30.00,NNW,344,10.7,10.7,64,0.00,CLR,BKN,0.00,383.0,WeatherDisplay:10.37,2013-03-07 13:45:00,
2013-03-07 08:50:00,43.3,31.9,30.00,NNW,344,10.0,10.0,64,0.00,CLR,BKN,0.00,383.0,WeatherDisplay:10.37,2013-03-07 13:50:00,
2013-03-07 08:55:00,44.0,31.4,30.00,NNW,335,9.5,19.6,61,0.00,CLR,BKN,0.00,457.0,WeatherDisplay:10.37,2013-03-07 13:55:00,
2013-03-07 09:00:00,44.3,32.1,30.01,North,355,9.3,16.1,62,0.00,CLR,BKN,0.00,473.0,WeatherDisplay:10.37,2013-03-07 14:00:00,
2013-03-07 09:05:00,44.5,32.3,30.01,NW,305,4.6,10.4,62,0.00,CLR,BKN,0.00,480.0,WeatherDisplay:10.37,2013-03-07 14:05:00,
2013-03-07 09:10:00,44.5,32.3,30.01,NW,305,4.6,10.4,62,0.00,CLR,BKN,0.00,480.0,WeatherDisplay:10.37,2013-03-07 14:10:00,
2013-03-07 09:15:00,45.0,31.9,30.01,NW,325,9.3,15.0,60,0.00,CLR,BKN,0.00,517.0,WeatherDisplay:10.37,2013-03-07 14:15:00,
2013-03-07 09:20:00,45.3,31.8,30.01,NNW,339,7.1,20.7,59,0.00,CLR,BKN,0.00,531.0,WeatherDisplay:10.37,2013-03-07 14:20:00,
2013-03-07 09:25:00,45.2,31.7,30.02,NW,312,9.7,9.7,59,0.00,CLR,BKN,0.00,538.0,WeatherDisplay:10.37,2013-03-07 14:25:00,
2013-03-07 09:30:00,45.2,31.7,30.02,NW,313,9.0,9.0,59,0.00,CLR,BKN,0.00,538.0,WeatherDisplay:10.37,2013-03-07 14:30:00,
2013-03-07 09:35:00,45.3,31.8,30.02,NNW,348,4.3,17.3,59,0.00,CLR,BKN,0.00,573.0,WeatherDisplay:10.37,2013-03-07 14:35:00,
2013-03-07 09:40:00,45.6,32.1,30.02,NW,322,8.0,16.0,59,0.00,CLR,BKN,0.00,584.0,WeatherDisplay:10.37,2013-03-07 14:40:00,
2013-03-07 09:45:00,45.5,31.6,30.02,WSW,244,7.8,7.8,58,0.00,CLR,BKN,0.00,592.0,WeatherDisplay:10.37,2013-03-07 14:45:00,
2013-03-07 09:50:00,45.5,31.6,30.02,WSW,254,8.0,8.0,58,0.00,CLR,BKN,0.00,592.0,WeatherDisplay:10.37,2013-03-07 14:50:00,
2013-03-07 09:55:00,45.7,31.8,30.02,NNE,17,7.6,7.6,58,0.00,CLR,BKN,0.00,621.0,WeatherDisplay:10.37,2013-03-07 14:55:00,
2013-03-07 10:00:00,45.9,31.9,30.02,NW,326,9.4,11.0,58,0.00,CLR,BKN,0.00,635.0,WeatherDisplay:10.37,2013-03-07 15:00:00,
2013-03-07 10:05:00,45.9,31.9,30.02,NW,326,9.4,9.4,58,0.00,CLR,BKN,0.00,635.0,WeatherDisplay:10.37,2013-03-07 15:05:00,
2013-03-07 10:10:00,45.9,31.9,30.02,NW,326,9.0,9.0,58,0.00,CLR,BKN,0.00,635.0,WeatherDisplay:10.37,2013-03-07 15:10:00,
2013-03-07 10:15:00,46.3,31.4,30.03,NW,315,9.5,16.0,56,0.00,CLR,BKN,0.00,668.0,WeatherDisplay:10.37,2013-03-07 15:15:00,
2013-03-07 10:20:00,46.9,32.9,30.03,SW,218,2.7,6.9,58,0.00,CLR,BKN,0.00,677.0,WeatherDisplay:10.37,2013-03-07 15:20:00,
2013-03-07 10:25:00,47.2,32.3,30.03,NNW,331,1.7,4.6,56,0.00,CLR,BKN,0.00,677.0,WeatherDisplay:10.37,2013-03-07 15:25:00,
2013-03-07 10:30:00,47.2,32.3,30.03,NNW,331,1.7,4.6,56,0.00,CLR,BKN,0.00,677.0,WeatherDisplay:10.37,2013-03-07 15:30:00,
2013-03-07 10:35:00,47.2,32.3,30.03,NW,321,6.6,13.0,56,0.00,CLR,BKN,0.00,705.0,WeatherDisplay:10.37,2013-03-07 15:35:00,
2013-03-07 10:40:00,47.3,32.4,30.03,NW,326,11.6,19.6,56,0.00,CLR,BKN,0.00,714.0,WeatherDisplay:10.37,2013-03-07 15:40:00,
2013-03-07 10:45:00,47.3,31.9,30.03,NW,312,7.9,10.4,55,0.00,CLR,BKN,0.00,717.0,WeatherDisplay:10.37,2013-03-07 15:45:00,
2013-03-07 10:50:00,47.3,31.9,30.03,NW,312,7.9,10.4,55,0.00,CLR,BKN,0.00,717.0,WeatherDisplay:10.37,2013-03-07 15:50:00,
2013-03-07 10:55:00,48.6,33.1,30.03,WNW,285,3.1,12.7,55,0.00,CLR,BKN,0.00,744.0,WeatherDisplay:10.37,2013-03-07 15:55:00,
2013-03-07 11:00:00,48.6,32.7,30.03,WNW,283,5.8,11.5,54,0.00,CLR,BKN,0.00,765.0,WeatherDisplay:10.37,2013-03-07 16:00:00,
2013-03-07 11:05:00,48.5,32.6,30.03,West,271,5.6,5.6,54,0.00,CLR,BKN,0.00,765.0,WeatherDisplay:10.37,2013-03-07 16:05:00,
2013-03-07 11:10:00,48.5,32.6,30.03,West,271,5.6,5.6,54,0.00,CLR,BKN,0.00,765.0,WeatherDisplay:10.37,2013-03-07 16:10:00,
2013-03-07 11:15:00,48.5,32.6,30.03,West,271,5.6,5.6,54,0.00,CLR,BKN,0.00,765.0,WeatherDisplay:10.37,2013-03-07 16:15:00,
2013-03-07 11:20:00,48.5,32.6,30.03,West,271,5.6,5.6,54,0.00,CLR,BKN,0.00,765.0,WeatherDisplay:10.37,2013-03-07 16:20:00,
2013-03-07 11:25:00,48.8,32.4,30.03,NW,318,4.4,9.2,53,0.00,CLR,BKN,0.00,788.0,WeatherDisplay:10.37,2013-03-07 16:25:00,
2013-03-07 11:30:00,48.8,32.4,30.04,NNW,335,7.4,16.1,53,0.00,CLR,BKN,0.00,789.0,WeatherDisplay:10.37,2013-03-07 16:30:00,
2013-03-07 11:35:00,48.9,32.5,30.03,NW,305,9.6,9.6,53,0.00,CLR,BKN,0.00,786.0,WeatherDisplay:10.37,2013-03-07 16:35:00,
2013-03-07 11:40:00,48.9,32.5,30.03,NW,305,9.6,9.6,53,0.00,CLR,BKN,0.00,786.0,WeatherDisplay:10.37,2013-03-07 16:40:00,
2013-03-07 11:45:00,49.4,32.0,30.03,WNW,285,11.2,16.1,51,0.00,CLR,BKN,0.00,798.0,WeatherDisplay:10.37,2013-03-07 16:45:00,
2013-03-07 11:50:00,49.2,31.8,30.03,WNW,294,10.9,19.6,51,0.00,CLR,BKN,0.00,796.0,WeatherDisplay:10.37,2013-03-07 16:50:00,
2013-03-07 11:55:00,49.0,31.6,30.03,WNW,283,12.7,12.7,51,0.00,CLR,BKN,0.00,796.0,WeatherDisplay:10.37,2013-03-07 16:55:00,
2013-03-07 12:00:00,49.0,31.6,30.03,WNW,283,12.7,12.7,51,0.00,CLR,BKN,0.00,796.0,WeatherDisplay:10.37,2013-03-07 17:00:00,
2013-03-07 12:05:00,50.1,32.2,30.03,NNW,328,10.0,19.6,50,0.00,CLR,BKN,0.00,800.0,WeatherDisplay:10.37,2013-03-07 17:05:00,
2013-03-07 12:10:00,49.9,32.0,30.02,North,360,4.1,12.7,50,0.00,CLR,BKN,0.00,798.0,WeatherDisplay:10.37,2013-03-07 17:10:00,
2013-03-07 12:16:00,50.1,32.2,30.02,NW,308,5.3,5.3,50,0.00,CLR,BKN,0.00,795.0,WeatherDisplay:10.37,2013-03-07 17:16:00,
2013-03-07 12:21:00,50.1,32.2,30.02,NW,308,5.3,5.3,50,0.00,CLR,BKN,0.00,795.0,WeatherDisplay:10.37,2013-03-07 17:21:00,
2013-03-07 12:26:00,50.2,31.8,30.02,NW,309,7.2,17.3,49,0.00,CLR,BKN,0.00,810.0,WeatherDisplay:10.37,2013-03-07 17:26:00,
2013-03-07 12:31:00,50.2,31.8,30.02,WNW,288,9.2,15.0,49,0.00,CLR,BKN,0.00,791.0,WeatherDisplay:10.37,2013-03-07 17:31:00,
2013-03-07 12:36:00,50.1,32.2,30.02,North,357,8.0,19.6,50,0.00,CLR,BKN,0.00,791.0,WeatherDisplay:10.37,2013-03-07 17:36:00,
2013-03-07 12:41:00,50.1,32.2,30.02,North,357,8.0,19.6,50,0.00,CLR,BKN,0.00,791.0,WeatherDisplay:10.37,2013-03-07 17:41:00,
2013-03-07 12:46:00,50.3,32.4,30.01,West,279,5.6,12.0,50,0.00,CLR,BKN,0.00,782.0,WeatherDisplay:10.37,2013-03-07 17:46:00,
2013-03-07 12:51:00,50.7,32.7,30.00,SSW,194,8.1,13.8,50,0.00,CLR,BKN,0.00,782.0,WeatherDisplay:10.37,2013-03-07 17:51:00,
2013-03-07 12:56:00,50.9,32.9,30.00,NW,323,6.8,8.1,50,0.00,CLR,BKN,0.00,780.0,WeatherDisplay:10.37,2013-03-07 17:56:00,
2013-03-07 13:01:00,50.9,32.9,30.00,NW,323,6.8,8.1,50,0.00,CLR,BKN,0.00,780.0,WeatherDisplay:10.37,2013-03-07 18:01:00,
2013-03-07 13:06:00,51.0,32.5,30.00,WNW,291,7.5,11.5,49,0.00,CLR,BKN,0.00,770.0,WeatherDisplay:10.37,2013-03-07 18:06:00,
2013-03-07 13:11:00,51.0,32.5,29.99,South,186,6.8,11.5,49,0.00,CLR,BKN,0.00,770.0,WeatherDisplay:10.37,2013-03-07 18:11:00,
2013-03-07 13:16:00,51.1,32.1,30.00,NW,314,9.4,9.4,48,0.00,CLR,BKN,0.00,768.0,WeatherDisplay:10.37,2013-03-07 18:16:00,
2013-03-07 13:21:00,51.1,32.1,30.00,NW,314,9.4,9.4,48,0.00,CLR,BKN,0.00,768.0,WeatherDisplay:10.37,2013-03-07 18:21:00,
2013-03-07 13:26:00,51.3,32.3,29.99,NNW,339,9.9,15.0,48,0.00,CLR,BKN,0.00,752.0,WeatherDisplay:10.37,2013-03-07 18:26:00,
2013-03-07 13:31:00,51.1,32.6,29.99,NNW,331,5.5,15.0,49,0.00,CLR,BKN,0.00,701.0,WeatherDisplay:10.37,2013-03-07 18:31:00,
2013-03-07 13:36:00,51.2,32.7,29.99,WNW,290,5.9,5.9,49,0.00,CLR,BKN,0.00,754.0,WeatherDisplay:10.37,2013-03-07 18:36:00,
2013-03-07 13:41:00,51.2,32.7,29.99,WNW,290,5.9,5.9,49,0.00,CLR,BKN,0.00,754.0,WeatherDisplay:10.37,2013-03-07 18:41:00,
2013-03-07 13:46:00,51.9,33.3,29.99,NW,304,4.9,11.5,49,0.00,CLR,BKN,0.00,724.0,WeatherDisplay:10.37,2013-03-07 18:46:00,
2013-03-07 13:51:00,51.8,32.7,29.99,NW,310,7.5,12.7,48,0.00,CLR,BKN,0.00,726.0,WeatherDisplay:10.37,2013-03-07 18:51:00,
2013-03-07 13:56:00,51.5,32.4,29.99,WNW,294,7.1,7.1,48,0.00,CLR,BKN,0.00,714.0,WeatherDisplay:10.37,2013-03-07 18:56:00,
2013-03-07 14:01:00,51.5,32.4,29.99,WNW,294,7.1,7.1,48,0.00,CLR,BKN,0.00,714.0,WeatherDisplay:10.37,2013-03-07 19:01:00,
2013-03-07 14:06:00,51.5,32.4,29.99,WNW,294,7.1,7.1,48,0.00,CLR,BKN,0.00,714.0,WeatherDisplay:10.37,2013-03-07 19:06:00,
2013-03-07 14:11:00,51.5,32.4,29.99,WNW,294,7.1,7.1,48,0.00,CLR,BKN,0.00,714.0,WeatherDisplay:10.37,2013-03-07 19:11:00,
2013-03-07 14:16:00,51.7,32.6,29.99,West,271,7.4,16.1,48,0.00,CLR,BKN,0.00,670.0,WeatherDisplay:10.37,2013-03-07 19:16:00,
2013-03-07 14:21:00,51.6,32.0,29.99,NW,306,7.8,17.3,47,0.00,CLR,BKN,0.00,657.0,WeatherDisplay:10.37,2013-03-07 19:21:00,
2013-03-07 14:26:00,51.6,32.5,29.99,WSW,248,6.6,6.6,48,0.00,CLR,BKN,0.00,675.0,WeatherDisplay:10.37,2013-03-07 19:26:00,
2013-03-07 14:32:00,51.6,32.5,29.99,WSW,248,6.6,6.6,48,0.00,CLR,BKN,0.00,675.0,WeatherDisplay:10.37,2013-03-07 19:32:00,
2013-03-07 14:37:00,52.2,32.0,29.99,WNW,285,8.4,11.5,46,0.00,CLR,BKN,0.00,647.0,WeatherDisplay:10.37,2013-03-07 19:37:00,
2013-03-07 14:42:00,51.9,32.3,29.99,West,279,7.2,15.0,47,0.00,CLR,BKN,0.00,621.0,WeatherDisplay:10.37,2013-03-07 19:42:00,
2013-03-07 14:47:00,51.8,32.2,29.99,NNW,328,6.7,6.9,47,0.00,CLR,BKN,0.00,617.0,WeatherDisplay:10.37,2013-03-07 19:47:00,
2013-03-07 14:52:00,51.8,32.2,29.99,NNW,328,6.7,6.9,47,0.00,CLR,BKN,0.00,617.0,WeatherDisplay:10.37,2013-03-07 19:52:00,
2013-03-07 14:57:00,52.3,32.1,29.99,NW,310,3.6,8.1,46,0.00,CLR,BKN,0.00,580.0,WeatherDisplay:10.37,2013-03-07 19:57:00,
2013-03-07 15:02:00,52.6,31.8,29.99,West,279,5.4,11.5,45,0.00,CLR,BKN,0.00,577.0,WeatherDisplay:10.37,2013-03-07 20:02:00,
2013-03-07 15:07:00,52.5,31.8,29.99,NNW,333,7.7,7.7,45,0.00,CLR,BKN,0.00,557.0,WeatherDisplay:10.37,2013-03-07 20:07:00,
2013-03-07 15:12:00,52.5,31.8,29.99,NNW,333,7.7,7.7,45,0.00,CLR,BKN,0.00,557.0,WeatherDisplay:10.37,2013-03-07 20:12:00,
2013-03-07 15:17:00,50.8,33.8,29.99,North,354,7.7,10.4,52,0.00,CLR,BKN,0.00,513.0,WeatherDisplay:10.37,2013-03-07 20:17:00,
2013-03-07 15:22:00,50.0,34.9,30.00,North,3,3.4,8.1,56,0.00,CLR,BKN,0.00,496.0,WeatherDisplay:10.37,2013-03-07 20:22:00,
2013-03-07 15:27:00,50.2,34.6,30.00,North,351,2.3,2.3,55,0.00,CLR,BKN,0.00,492.0,WeatherDisplay:10.37,2013-03-07 20:27:00,
2013-03-07 15:32:00,50.2,34.6,30.00,North,351,2.3,2.3,55,0.00,CLR,BKN,0.00,492.0,WeatherDisplay:10.37,2013-03-07 20:32:00,
2013-03-07 15:37:00,49.9,34.4,30.00,NW,314,6.7,12.7,55,0.00,CLR,BKN,0.00,464.0,WeatherDisplay:10.37,2013-03-07 20:37:00,
2013-03-07 15:43:00,49.5,34.0,30.00,NNE,20,6.8,10.4,55,0.00,CLR,BKN,0.00,468.0,WeatherDisplay:10.37,2013-03-07 20:43:00,
2013-03-07 15:48:00,49.5,34.4,30.00,North,355,2.5,3.5,56,0.00,CLR,BKN,0.00,466.0,WeatherDisplay:10.37,2013-03-07 20:48:00,
2013-03-07 15:53:00,49.5,34.4,30.00,North,355,2.5,3.5,56,0.00,CLR,BKN,0.00,466.0,WeatherDisplay:10.37,2013-03-07 20:53:00,
2013-03-07 15:58:00,50.0,34.9,30.01,WNW,294,4.0,6.9,56,0.00,CLR,BKN,0.00,432.0,WeatherDisplay:10.37,2013-03-07 20:58:00,
2013-03-07 16:03:00,50.2,34.6,30.01,NNE,20,4.6,15.0,55,0.00,CLR,BKN,0.00,429.0,WeatherDisplay:10.37,2013-03-07 21:03:00,
2013-03-07 16:08:00,49.4,34.3,30.01,North,360,2.2,4.6,56,0.00,BKN,,0.00,109.0,WeatherDisplay:10.37,2013-03-07 21:08:00,
2013-03-07 16:13:00,49.1,34.9,30.01,North,4,3.6,8.1,58,0.00,CLR,BKN,0.00,383.0,WeatherDisplay:10.37,2013-03-07 21:13:00,
2013-03-07 16:18:00,49.1,34.9,30.01,North,356,1.4,3.5,58,0.00,CLR,BKN,0.00,378.0,WeatherDisplay:10.37,2013-03-07 21:18:00,
2013-03-07 16:23:00,49.4,34.8,30.01,NNE,31,4.5,11.5,57,0.00,CLR,BKN,0.00,367.0,WeatherDisplay:10.37,2013-03-07 21:23:00,
2013-03-07 16:28:00,49.4,34.8,30.01,North,354,4.5,4.5,57,0.00,CLR,BKN,0.00,357.0,WeatherDisplay:10.37,2013-03-07 21:28:00,
2013-03-07 16:33:00,49.4,34.8,30.01,North,354,4.5,4.5,57,0.00,CLR,BKN,0.00,357.0,WeatherDisplay:10.37,2013-03-07 21:33:00,
2013-03-07 16:38:00,49.4,34.8,30.01,North,354,4.5,4.5,57,0.00,CLR,BKN,0.00,357.0,WeatherDisplay:10.37,2013-03-07 21:38:00,
2013-03-07 16:43:00,49.4,34.8,30.01,North,354,4.5,4.5,57,0.00,CLR,BKN,0.00,357.0,WeatherDisplay:10.37,2013-03-07 21:43:00,
2013-03-07 16:48:00,47.6,34.4,30.02,NNW,338,1.8,3.5,60,0.00,BKN,,0.00,69.0,WeatherDisplay:10.37,2013-03-07 21:48:00,
2013-03-07 16:53:00,47.2,34.4,30.02,NNW,341,2.4,4.0,61,0.00,BKN,,0.00,67.0,WeatherDisplay:10.37,2013-03-07 21:53:00,
2013-03-07 16:58:00,47.1,34.3,30.02,NNW,341,1.9,2.3,61,0.00,BKN,,0.00,65.0,WeatherDisplay:10.37,2013-03-07 21:58:00,
2013-03-07 17:03:00,47.1,34.3,30.02,NNW,341,1.9,2.3,61,0.00,BKN,,0.00,65.0,WeatherDisplay:10.37,2013-03-07 22:03:00,
2013-03-07 17:09:00,46.3,34.4,30.03,North,349,3.8,10.4,63,0.00,BKN,,0.00,47.0,WeatherDisplay:10.37,2013-03-07 22:09:00,
2013-03-07 17:14:00,46.1,34.2,30.03,NNE,16,1.0,3.5,63,0.00,SCT,BKN,0.00,74.0,WeatherDisplay:10.37,2013-03-07 22:14:00,
2013-03-07 17:19:00,46.1,34.2,30.03,North,356,1.3,3.5,63,0.00,CLR,BKN,0.00,91.0,WeatherDisplay:10.37,2013-03-07 22:19:00,
2013-03-07 17:24:00,46.1,34.2,30.03,North,356,1.3,3.5,63,0.00,CLR,BKN,0.00,91.0,WeatherDisplay:10.37,2013-03-07 22:24:00,
2013-03-07 17:29:00,45.8,34.3,30.04,North,352,1.9,8.1,64,0.00,FEW,BKN,0.00,53.0,WeatherDisplay:10.37,2013-03-07 22:29:00,
2013-03-07 17:34:00,45.5,34.4,30.04,NNE,13,0.3,3.0,65,0.00,FEW,BKN,0.00,40.0,WeatherDisplay:10.37,2013-03-07 22:34:00,
2013-03-07 17:39:00,45.5,34.4,30.04,North,354,1.1,4.6,65,0.00,CLR,BKN,0.00,40.0,WeatherDisplay:10.37,2013-03-07 22:39:00,
2013-03-07 17:44:00,45.5,34.4,30.04,North,354,1.1,4.6,65,0.00,CLR,BKN,0.00,40.0,WeatherDisplay:10.37,2013-03-07 22:44:00,
2013-03-07 17:49:00,45.2,34.5,30.05,North,358,0.3,2.3,66,0.00,FEW,BKN,0.00,16.0,WeatherDisplay:10.37,2013-03-07 22:49:00,
2013-03-07 17:54:00,45.1,34.4,30.05,NNE,19,0.3,2.3,66,0.00,CLR,BKN,0.00,11.0,WeatherDisplay:10.37,2013-03-07 22:54:00,
2013-03-07 17:59:00,45.1,34.4,30.05,NNE,21,0.4,2.3,66,0.00,CLR,BKN,0.00,11.0,WeatherDisplay:10.37,2013-03-07 22:59:00,
2013-03-07 18:04:00,45.1,34.4,30.05,NNE,21,0.4,2.3,66,0.00,CLR,BKN,0.00,11.0,WeatherDisplay:10.37,2013-03-07 23:04:00,
2013-03-07 18:09:00,44.8,34.1,30.05,NNE,15,0.0,0.0,66,0.00,CLR,BKN,0.00,0.0,WeatherDisplay:10.37,2013-03-07 23:09:00,
2013-03-07 18:14:00,44.7,34.0,30.05,NNE,15,0.0,0.0,66,0.00,CLR,BKN,0.00,0.0,WeatherDisplay:10.37,2013-03-07 23:14:00,
2013-03-07 18:19:00,44.7,34.0,30.05,NNE,15,0.0,0.0,66,0.00,CLR,BKN,0.00,0.0,WeatherDisplay:10.37,2013-03-07 23:19:00,
2013-03-07 18:24:00,44.7,34.0,30.05,NNE,15,0.0,0.0,66,0.00,CLR,BKN,0.00,0.0,WeatherDisplay:10.37,2013-03-07 23:24:00,
2013-03-07 18:29:00,44.4,33.7,30.06,NW,325,0.0,0.0,66,0.00,CLR,BKN,0.00,0.0,WeatherDisplay:10.37,2013-03-07 23:29:00,
2013-03-07 18:34:00,44.3,34.0,30.06,NNW,343,0.0,0.0,67,0.00,CLR,BKN,0.00,0.0,WeatherDisplay:10.37,2013-03-07 23:34:00,
2013-03-07 18:39:00,44.3,34.0,30.06,NNW,343,0.0,0.0,67,0.00,CLR,BKN,0.00,0.0,WeatherDisplay:10.37,2013-03-07 23:39:00,
2013-03-07 18:44:00,44.3,34.0,30.06,NNW,343,0.0,0.0,67,0.00,CLR,BKN,0.00,0.0,WeatherDisplay:10.37,2013-03-07 23:44:00,
2013-03-07 18:49:00,44.0,33.4,30.07,NNW,330,0.0,1.1,66,0.00,CLR,BKN,0.00,0.0,WeatherDisplay:10.37,2013-03-07 23:49:00,
2013-03-07 18:55:00,44.0,32.2,30.07,WNW,283,0.6,6.9,63,0.00,CLR,BKN,0.00,0.0,WeatherDisplay:10.37,2013-03-07 23:55:00,
2013-03-07 19:00:00,44.0,32.2,30.07,WNW,283,0.6,3.5,63,0.00,CLR,BKN,0.00,0.0,WeatherDisplay:10.37,2013-03-08 00:00:00,
2013-03-07 19:05:00,44.0,32.2,30.07,WNW,283,0.6,3.5,63,0.00,CLR,BKN,0.00,0.0,WeatherDisplay:10.37,2013-03-08 00:05:00,
2013-03-07 19:10:00,44.7,31.7,30.08,WNW,283,0.7,3.5,60,0.00,CLR,BKN,0.00,0.0,WeatherDisplay:10.37,2013-03-08 00:10:00,
2013-03-07 19:15:00,44.8,31.8,30.08,West,275,3.0,6.9,60,0.00,CLR,BKN,0.00,0.0,WeatherDisplay:10.37,2013-03-08 00:15:00,
2013-03-07 19:20:00,44.8,31.8,30.08,West,275,3.0,3.5,60,0.00,CLR,BKN,0.00,0.0,WeatherDisplay:10.37,2013-03-08 00:20:00,
2013-03-07 19:25:00,44.8,31.8,30.08,West,275,3.0,3.5,60,0.00,CLR,BKN,0.00,0.0,WeatherDisplay:10.37,2013-03-08 00:25:00,
2013-03-07 19:30:00,44.8,31.8,30.08,West,275,3.0,3.5,60,0.00,CLR,BKN,0.00,0.0,WeatherDisplay:10.37,2013-03-08 00:30:00,
2013-03-07 19:35:00,44.8,31.8,30.08,West,275,3.0,3.5,60,0.00,CLR,BKN,0.00,0.0,WeatherDisplay:10.37,2013-03-08 00:35:00,
2013-03-07 19:40:00,45.0,31.1,30.09,West,270,2.0,7.0,58,0.00,CLR,BKN,0.00,0.0,WeatherDisplay:10.37,2013-03-08 00:40:00,
2013-03-07 19:45:00,44.8,30.9,30.09,West,268,1.1,3.5,58,0.00,CLR,BKN,0.00,0.0,WeatherDisplay:10.37,2013-03-08 00:45:00,
2013-03-07 19:50:00,44.8,30.9,30.09,West,268,1.1,0.0,58,0.00,CLR,BKN,0.00,0.0,WeatherDisplay:10.37,2013-03-08 00:50:00,
2013-03-07 19:55:00,44.8,30.9,30.09,West,268,1.1,0.0,58,0.00,CLR,BKN,0.00,0.0,WeatherDisplay:10.37,2013-03-08 00:55:00,
2013-03-07 20:00:00,44.6,30.3,30.09,WNW,285,2.0,8.0,57,0.00,CLR,BKN,0.00,0.0,WeatherDisplay:10.37,2013-03-08 01:00:00,
2013-03-07 20:05:00,44.6,30.3,30.09,NW,304,0.3,1.1,57,0.00,CLR,BKN,0.00,0.0,WeatherDisplay:10.37,2013-03-08 01:05:00,
2013-03-07 20:10:00,44.6,30.3,30.09,NW,304,0.3,0.0,57,0.00,CLR,BKN,0.00,0.0,WeatherDisplay:10.37,2013-03-08 01:10:00,
2013-03-07 20:15:00,44.6,30.3,30.09,NW,304,0.3,0.0,57,0.00,CLR,BKN,0.00,0.0,WeatherDisplay:10.37,2013-03-08 01:15:00,
2013-03-07 20:20:00,44.6,30.3,30.09,NW,304,0.3,0.0,57,0.00,CLR,BKN,0.00,0.0,WeatherDisplay:10.37,2013-03-08 01:20:00,
2013-03-07 20:25:00,44.6,30.3,30.09,NW,304,0.3,0.0,57,0.00,CLR,BKN,0.00,0.0,WeatherDisplay:10.37,2013-03-08 01:25:00,
2013-03-07 20:30:00,44.6,30.3,30.09,NW,304,0.3,0.0,57,0.00,CLR,BKN,0.00,0.0,WeatherDisplay:10.37,2013-03-08 01:30:00,
2013-03-07 20:35:00,44.2,30.3,30.09,WNW,293,5.9,8.1,58,0.00,CLR,BKN,0.00,0.0,WeatherDisplay:10.37,2013-03-08 01:35:00,
2013-03-07 20:41:00,44.2,30.3,30.09,NNW,333,0.2,3.5,58,0.00,CLR,BKN,0.00,0.0,WeatherDisplay:10.37,2013-03-08 01:41:00,
2013-03-07 20:46:00,44.1,30.3,30.09,West,273,2.0,0.0,58,0.00,CLR,BKN,0.00,0.0,WeatherDisplay:10.37,2013-03-08 01:46:00,
2013-03-07 20:51:00,44.1,30.3,30.09,West,273,2.0,0.0,58,0.00,CLR,BKN,0.00,0.0,WeatherDisplay:10.37,2013-03-08 01:51:00,
2013-03-07 20:56:00,44.2,30.3,30.08,West,260,0.1,3.5,58,0.00,CLR,BKN,0.00,0.0,WeatherDisplay:10.37,2013-03-08 01:56:00,
2013-03-07 21:01:00,44.2,30.3,30.08,NW,306,2.0,3.5,58,0.00,CLR,BKN,0.00,0.0,WeatherDisplay:10.37,2013-03-08 02:01:00,
2013-03-07 21:06:00,44.2,30.3,30.08,West,271,2.0,4.6,58,0.00,,BKN,0.00,0.0,WeatherDisplay:10.37,2013-03-08 02:06:00,
2013-03-07 21:11:00,44.2,30.3,30.08,West,271,2.0,4.6,58,0.00,,BKN,0.00,0.0,WeatherDisplay:10.37,2013-03-08 02:11:00,
2013-03-07 21:16:00,44.2,30.8,30.08,SW,228,3.3,13.0,59,0.00,,BKN,0.00,0.0,WeatherDisplay:10.37,2013-03-08 02:16:00,
2013-03-07 21:21:00,44.2,30.8,30.09,SW,227,1.3,4.6,59,0.00,,BKN,0.00,0.0,WeatherDisplay:10.37,2013-03-08 02:21:00,
2013-03-07 21:26:00,44.2,30.8,30.09,West,269,4.6,4.6,59,0.00,,BKN,0.00,0.0,WeatherDisplay:10.37,2013-03-08 02:26:00,
2013-03-07 21:31:00,44.2,30.8,30.09,West,269,4.6,4.6,59,0.00,,BKN,0.00,0.0,WeatherDisplay:10.37,2013-03-08 02:31:00,
2013-03-07 21:36:00,44.2,30.8,30.09,West,269,4.6,4.6,59,0.00,,BKN,0.00,0.0,WeatherDisplay:10.37,2013-03-08 02:36:00,
2013-03-07 21:41:00,44.2,30.8,30.09,West,269,4.6,4.6,59,0.00,,BKN,0.00,0.0,WeatherDisplay:10.37,2013-03-08 02:41:00,
2013-03-07 21:46:00,44.2,30.8,30.08,West,266,6.2,11.5,59,0.00,,BKN,0.00,0.0,WeatherDisplay:10.37,2013-03-08 02:46:00,
2013-03-07 21:51:00,44.2,30.8,30.08,WNW,290,1.0,3.5,59,0.00,,BKN,0.00,0.0,WeatherDisplay:10.37,2013-03-08 02:51:00,
2013-03-07 21:56:00,44.2,30.8,30.08,West,264,1.8,1.8,59,0.00,,BKN,0.00,0.0,WeatherDisplay:10.37,2013-03-08 02:56:00,
2013-03-07 22:01:00,44.2,30.8,30.08,West,264,1.8,1.8,59,0.00,,BKN,0.00,0.0,WeatherDisplay:10.37,2013-03-08 03:01:00,
2013-03-07 22:06:00,44.2,30.8,30.08,NW,312,1.0,5.0,59,0.00,,BKN,0.00,0.0,WeatherDisplay:10.37,2013-03-08 03:06:00,
2013-03-07 22:11:00,44.2,30.8,30.08,West,261,3.2,7.0,59,0.00,,BKN,0.00,0.0,WeatherDisplay:10.37,2013-03-08 03:11:00,
2013-03-07 22:16:00,44.1,30.3,30.08,SW,227,3.4,0.0,58,0.00,,BKN,0.00,0.0,WeatherDisplay:10.37,2013-03-08 03:16:00,
2013-03-07 22:21:00,44.1,30.3,30.08,SW,227,3.4,0.0,58,0.00,,BKN,0.00,0.0,WeatherDisplay:10.37,2013-03-08 03:21:00,
2013-03-07 22:26:00,43.9,30.1,30.08,West,277,3.0,9.2,58,0.00,,BKN,0.00,0.0,WeatherDisplay:10.37,2013-03-08 03:26:00,
2013-03-07 22:31:00,44.0,30.6,30.08,West,265,2.9,5.8,59,0.00,,BKN,0.00,0.0,WeatherDisplay:10.37,2013-03-08 03:31:00,
2013-03-07 22:36:00,43.9,30.5,30.08,NNW,337,3.0,0.0,59,0.00,,BKN,0.00,0.0,WeatherDisplay:10.37,2013-03-08 03:36:00,
2013-03-07 22:42:00,43.9,30.5,30.08,NNW,337,3.0,0.0,59,0.00,,BKN,0.00,0.0,WeatherDisplay:10.37,2013-03-08 03:42:00,
2013-03-07 22:47:00,44.0,30.6,30.08,SW,223,2.3,6.9,59,0.00,,BKN,0.00,0.0,WeatherDisplay:10.37,2013-03-08 03:47:00,
2013-03-07 22:52:00,44.0,30.6,30.08,West,269,2.3,6.9,59,0.00,,BKN,0.00,0.0,WeatherDisplay:10.37,2013-03-08 03:52:00,
2013-03-07 22:57:00,44.0,30.6,30.08,West,269,1.9,3.5,59,0.00,,BKN,0.00,0.0,WeatherDisplay:10.37,2013-03-08 03:57:00,
2013-03-07 23:02:00,44.0,30.6,30.08,West,269,1.9,3.5,59,0.00,,BKN,0.00,0.0,WeatherDisplay:10.37,2013-03-08 04:02:00,
2013-03-07 23:07:00,43.8,30.4,30.08,NW,321,4.7,15.0,59,0.00,,BKN,0.00,0.0,WeatherDisplay:10.37,2013-03-08 04:07:00,
2013-03-07 23:12:00,43.8,30.8,30.08,WNW,290,0.9,3.5,60,0.00,,BKN,0.00,0.0,WeatherDisplay:10.37,2013-03-08 04:12:00,
2013-03-07 23:17:00,43.8,30.8,30.08,WNW,285,1.9,10.4,60,0.00,,BKN,0.00,0.0,WeatherDisplay:10.37,2013-03-08 04:17:00,
2013-03-07 23:22:00,43.8,30.8,30.08,WNW,285,1.9,10.4,60,0.00,,BKN,0.00,0.0,WeatherDisplay:10.37,2013-03-08 04:22:00,
2013-03-07 23:27:00,43.7,31.1,30.08,NNW,337,3.0,8.1,61,0.00,,BKN,0.00,0.0,WeatherDisplay:10.37,2013-03-08 04:27:00,
2013-03-07 23:32:00,43.6,31.0,30.08,NNW,344,3.8,9.2,61,0.00,,BKN,0.00,0.0,WeatherDisplay:10.37,2013-03-08 04:32:00,
2013-03-07 23:37:00,43.6,31.0,30.08,WNW,291,4.3,8.1,61,0.00,,BKN,0.00,0.0,WeatherDisplay:10.37,2013-03-08 04:37:00,
2013-03-07 23:42:00,43.6,31.4,30.08,WNW,295,0.5,3.5,62,0.00,,BKN,0.00,0.0,WeatherDisplay:10.37,2013-03-08 04:42:00,
2013-03-07 23:47:00,43.6,31.0,30.08,WSW,238,5.3,10.4,61,0.00,,BKN,0.00,0.0,WeatherDisplay:10.37,2013-03-08 04:47:00,
2013-03-07 23:52:00,43.6,31.0,30.07,NW,325,3.0,6.9,61,0.00,,BKN,0.00,0.0,WeatherDisplay:10.37,2013-03-08 04:52:00,
2013-03-07 23:57:00,43.7,31.1,30.08,NNW,348,4.9,0.0,61,0.00,,BKN,0.00,0.0,WeatherDisplay:10.37,2013-03-08 04:57:00,